Medicine Lodge, KS

2:01 PM CST on December 07, 2019 (GMT -0600)
Medicine Lodge

Weather History for KP28 - October, 2019

Change the Weather History Date:

Thursday, October 24, 2019

  Actual Average Record
Temperature  
Mean Temperature 46 °F 56 °F  
Max Temperature 53 °F 68 °F 95 °F (1939)
Min Temperature 38 °F 43 °F 23 °F (1938)
Degree Days  
Heating Degree Days 19 10  
Month to date heating degree days 192 157  
Since 1 July heating degree days 192 191  
Cooling Degree Days 0 0  
Month to date cooling degree days 23 37  
Year to date cooling degree days 1837 1768  
Moisture  
Dew Point 30 °F    
Average Humidity 63    
Maximum Humidity 85    
Minimum Humidity 41    
Precipitation  
Precipitation 0.03 in 0.08 in 0.43 in (1949)
Month to date precipitation 1.79 2.29  
Year to date precipitation 30.37 24.74  
Snow  
Snow 0.00 in 0.00 in - ()
Month to date snowfall 0.0 0.0  
Since 1 July snowfall 0.0 0.0  
Since 1 September snowfall 0.0 0.0  
Snow Depth 0.00 in    
Sea Level Pressure  
Sea Level Pressure 30.29 in    
Wind  
Wind Speed 17 mph (NNE)    
Max Wind Speed 31 mph    
Max Gust Speed 44 mph    
T = Trace of Precipitation, MM = Missing Value Source: NWS Daily Summary

Daily Weather History Graph

Daily Weather History Graph

Search for Another Location

Airport or City:

Astronomy

Oct. 24, 2019 Rise Set
Actual Time 7:50 AM CDT 6:45 PM CDT
Civil Twilight 7:24 AM CDT 7:12 PM CDT
Nautical Twilight 6:53 AM CDT 7:42 PM CDT
Astronomical Twilight 6:23 AM CDT 8:13 PM CDT
Moon 3:30 AM CDT (10/24) 5:07 PM CDT (10/24)
Length of Visible Light 11h 48m
Length of Day
10h 55m
Waning Crescent, 16% of the Moon is Illuminated
Oct 24
Waning Crescent
Oct 27
New
Nov 4
First Quarter
Nov 12
Full
Nov 19
Last Quarter

Hourly Weather History & Observations

Time (CDT) Temp. Windchill Dew Point Humidity Pressure Visibility Wind Dir Wind Speed Gust Speed Precip Events Conditions
12:56 AM 53.1 °F - 35.1 °F 50% 30.12 in - North 19.6 mph 33.4 mph N/A   Unknown
1:56 AM 50.0 °F - 37.0 °F 61% 30.12 in - North 24.2 mph 40.3 mph N/A   Unknown
2:56 AM 45.0 °F 36.4 °F 36.0 °F 71% 30.19 in - North 23.0 mph 40.3 mph N/A   Unknown
3:56 AM 42.1 °F 32.3 °F 34.0 °F 73% 30.21 in - North 24.2 mph 38.0 mph N/A   Unknown
4:56 AM 41.0 °F 30.2 °F 33.1 °F 73% 30.22 in - North 27.6 mph 41.4 mph N/A   Unknown
5:56 AM 41.0 °F 30.9 °F 32.0 °F 70% 30.25 in - North 24.2 mph 39.1 mph N/A   Unknown
6:56 AM 39.9 °F 30.0 °F 30.9 °F 70% 30.28 in - North 21.9 mph 42.6 mph N/A   Unknown
7:56 AM 39.9 °F 29.7 °F 30.9 °F 70% 30.31 in - North 23.0 mph 36.8 mph N/A   Unknown
8:56 AM 39.0 °F 28.5 °F 30.0 °F 70% 30.32 in - North 23.0 mph 38.0 mph N/A   Unknown
12:56 PM 46.0 °F 38.5 °F 28.0 °F 50% 30.33 in - North 19.6 mph 33.4 mph N/A   Unknown
1:56 PM 46.9 °F - 27.0 °F 46% 30.28 in - NNE 21.9 mph 29.9 mph N/A   Unknown
2:56 PM 45.0 °F 37.9 °F 25.0 °F 46% 30.30 in - NNE 16.1 mph 31.1 mph N/A   Unknown
3:56 PM 45.0 °F 39.3 °F 23.0 °F 42% 30.32 in - North 11.5 mph 21.9 mph N/A   Unknown
4:56 PM 43.0 °F 35.4 °F 25.0 °F 49% 30.35 in - North 16.1 mph 26.5 mph N/A   Unknown
5:56 PM 39.0 °F 30.6 °F 32.0 °F 76% 30.37 in - NNE 15.0 mph 26.5 mph N/A   Unknown
6:56 PM 37.9 °F 30.0 °F 33.1 °F 83% 30.34 in - NNE 12.7 mph 24.2 mph 0.02 in   Unknown
7:56 PM 42.1 °F 35.2 °F 28.0 °F 58% 30.33 in - North 12.7 mph - 0.01 in   Unknown
9:56 PM 42.1 °F 36.6 °F 28.9 °F 60% 30.38 in - NE 9.2 mph - N/A   Unknown
10:56 PM 42.1 °F 37.1 °F 28.0 °F 58% 30.36 in - North 8.1 mph - N/A   Unknown
11:56 PM 42.1 °F 36.1 °F 28.0 °F 58% 30.37 in - North 10.4 mph - N/A   Unknown